Wind_Speed
3 2 3 4 4 1 5 8 9 10 11 12 13 14 16 16 13 10 10 11 11 13 15 17 19 21 23 26 28 31 33 34 36 37 37 38 37 37 37 37 36 35 35 35
7 5 2 2 3 1 6 10 11 13 13 14 14 14 12 8 7 5 6 6 8 10 13 15 18 21 23 25 28 30 31 33 34 35 35 36 35 35 35 36 35 35 34 35
8 6 3 2 1 2 6 10 12 14 15 17 19 20 17 8 4 2 3 3 6 9 12 14 17 19 21 23 25 26 28 30 31 32 33 34 34 35 34 35 35 34 33 33
7 6 6 4 3 5 8 10 12 14 16 20 20 19 12 6 6 5 5 4 6 9 12 14 17 19 21 23 24 26 27 29 30 31 32 33 33 34 34 34 34 35 35 34
7 6 6 7 9 10 10 11 12 13 14 17 16 13 7 6 5 6 6 7 9 11 14 17 19 21 23 24 25 26 27 28 30 31 32 33 34 34 35 35 35 36 36 36
8 6 6 7 8 8 8 9 10 10 11 14 13 12 9 6 7 7 8 10 13 16 19 21 23 24 26 27 27 28 29 29 31 32 33 35 35 36 37 37 37 37 37 37
7 6 5 4 4 5 6 8 8 8 9 10 12 13 11 7 7 9 11 14 17 21 24 26 28 29 30 31 31 31 31 32 33 34 35 36 37 37 38 38 38 38 38 38
8 6 5 5 5 4 6 9 9 8 9 8 9 9 9 7 8 12 15 18 21 24 27 29 31 33 34 35 35 35 35 35 35 36 36 37 38 38 39 39 39 39 39 39
9 7 6 6 7 7 9 9 8 8 8 7 8 9 10 9 11 15 19 22 24 26 29 32 34 35 37 37 37 37 37 37 37 37 37 38 38 38 38 39 39 40 40 41
10 8 8 8 10 11 12 10 7 5 7 8 9 10 13 13 16 19 22 23 25 27 30 33 35 37 38 38 38 38 38 38 38 38 38 38 38 38 39 40 40 41 42 42
9 9 8 9 9 9 9 8 7 6 7 9 12 15 16 17 18 20 22 24 26 28 30 33 36 37 38 39 39 39 39 38 38 38 38 39 39 40 41 42 42 43 43 42
8 9 9 8 7 7 8 9 8 9 10 12 16 19 18 19 20 22 24 25 27 29 31 33 36 37 38 39 39 38 38 38 39 39 39 40 41 42 43 44 44 43 43 42
9 10 11 10 8 8 8 9 11 12 13 15 17 20 20 20 22 23 25 26 27 28 31 34 37 38 39 38 37 38 38 39 40 40 41 42 43 44 45 45 44 43 42 41
9 10 10 10 11 11 9 9 11 13 14 15 16 18 19 20 21 23 25 26 27 30 33 36 38 38 38 38 38 39 40 41 42 43 44 44 45 45 45 45 44 42 41 39
7 8 9 10 11 12 11 11 12 14 15 16 17 18 19 21 22 24 26 27 29 32 34 36 37 38 39 39 40 41 42 43 44 45 46 46 46 47 46 45 43 41 39 39
6 5 5 8 10 11 11 12 14 15 16 17 17 19 21 23 24 25 27 28 30 32 34 35 37 38 40 40 41 42 43 45 46 47 47 47 47 47 46 44 41 40 39 39
9 7 7 8 9 9 11 12 14 14 15 16 18 20 23 24 25 26 27 28 30 32 34 36 38 39 40 41 42 43 45 46 47 48 49 49 49 47 45 43 41 40 40 39
8 8 9 10 9 10 10 13 14 16 17 17 19 21 24 25 25 26 27 29 31 33 35 37 39 40 40 42 43 44 46 47 48 49 49 50 49 48 45 43 42 41 40 40
9 10 12 13 12 11 13 14 15 17 18 19 21 24 26 26 27 27 29 31 32 35 37 39 40 40 41 42 44 45 47 47 48 49 49 50 49 47 45 43 41 40 40 40
14 15 15 15 14 13 11 12 16 18 20 21 23 24 26 27 29 29 31 32 34 36 38 40 40 41 42 43 44 45 47 47 48 48 49 49 49 47 45 43 41 40 40 40
19 19 19 19 18 18 17 19 19 21 22 23 23 24 26 27 28 30 32 33 35 37 38 40 41 42 43 44 44 46 46 47 47 48 49 49 49 48 45 43 41 40 40 39
21 21 22 22 22 23 22 23 23 24 24 24 24 24 26 27 29 30 32 35 37 38 39 40 41 42 43 45 45 46 46 46 47 48 49 49 49 48 45 43 41 40 40 38
22 23 23 22 22 23 23 24 25 26 26 25 25 25 26 27 29 31 33 36 39 40 40 41 41 43 44 45 45 45 46 46 47 48 49 49 49 47 45 42 41 40 39 38
20 24 25 24 23 24 24 24 26 27 27 26 26 26 27 28 30 32 35 38 40 41 42 42 43 44 45 45 45 45 45 46 47 47 48 48 48 46 44 42 41 40 39 37
20 24 26 25 24 24 23 24 26 27 28 28 28 29 30 31 32 34 36 39 41 42 43 43 44 45 46 46 45 46 46 46 47 47 47 48 47 45 43 41 40 39 37 36
22 26 28 27 26 26 25 25 26 28 29 30 32 33 34 36 37 38 39 41 42 43 44 44 46 47 48 48 47 47 46 46 46 46 46 46 46 44 42 40 39 38 36 35
Wind_Direction
82 102 135 133 139 221 293 299 298 295 291 291 274 269 273 268 258 261 279 283 280 285 288 290 291 292 292 291 291 291 292 293 293 293 294 294 294 294 294 293 292 290 288 286
360 3 72 120 113 293 305 307 316 319 320 329 324 313 304 286 256 258 290 283 284 290 292 293 293 293 292 291 291 290 291 291 291 292 293 294 295 294 294 293 292 290 287 285
350 359 11 337 277 329 333 328 334 331 328 330 327 330 331 324 331 3 335 299 300 304 306 307 307 304 300 297 294 294 293 293 293 294 295 296 297 297 296 296 295 293 291 289
2 352 341 337 6 11 353 342 338 337 338 338 336 338 346 360 23 40 27 8 342 333 330 327 323 318 314 310 306 303 302 300 300 300 300 301 301 301 300 300 299 298 296 294
8 354 349 10 17 4 352 341 339 341 344 350 354 357 14 23 33 34 25 7 357 350 345 341 336 330 325 321 318 314 310 308 306 305 304 304 303 303 302 302 301 299 298 297
11 355 356 11 8 347 344 333 330 336 342 359 17 32 53 56 38 23 12 4 360 356 352 347 343 338 334 330 326 322 316 312 308 306 305 305 304 304 303 302 301 300 299 298
18 4 345 345 350 338 321 310 307 316 337 2 29 48 50 48 28 16 6 0 359 357 353 349 345 342 339 335 330 325 321 317 313 310 308 307 306 304 303 302 301 300 299 297
356 354 348 335 352 355 315 312 308 311 324 342 5 25 20 20 13 7 2 359 357 354 350 347 345 342 339 335 331 327 323 319 316 313 310 308 306 304 303 302 300 299 297 295
352 346 338 335 343 347 346 337 325 314 317 315 331 338 347 3 6 3 359 356 352 349 346 345 342 339 336 333 330 327 323 320 317 315 313 311 308 306 304 302 300 298 296 293
343 333 321 324 326 329 336 342 340 323 306 299 306 317 339 1 2 358 354 350 346 344 343 341 338 335 333 331 329 327 325 324 322 319 317 315 313 310 308 305 302 299 296 293
325 320 307 304 309 321 331 336 350 347 322 308 309 325 344 354 354 349 345 343 341 339 337 335 334 332 331 330 330 329 328 327 325 324 322 320 317 314 311 308 305 301 297 293
308 305 299 295 310 331 344 345 348 347 333 322 321 329 340 346 345 341 339 337 334 333 331 330 331 331 331 330 331 331 330 330 329 327 326 323 321 318 315 312 308 304 300 295
300 298 298 292 291 308 330 333 333 334 331 328 325 329 336 338 336 333 331 329 326 325 326 328 330 331 331 331 331 333 333 333 332 330 329 327 325 322 318 315 311 307 303 298
300 294 292 292 292 298 306 307 312 320 323 327 327 328 332 331 327 324 323 322 320 322 326 328 329 330 331 332 333 334 335 335 333 332 331 329 327 325 321 318 313 309 305 301
309 294 291 290 291 294 298 294 299 310 317 321 323 327 330 325 321 320 320 320 320 322 324 325 327 331 334 335 335 336 335 335 334 333 333 331 330 327 324 320 316 311 307 304
338 334 311 293 290 292 293 293 293 303 312 316 320 325 323 320 318 319 319 318 317 319 322 324 328 333 335 335 335 335 335 335 335 334 334 333 331 329 325 322 317 314 310 307
318 335 337 325 313 307 293 289 290 297 303 310 317 318 315 315 315 316 315 314 316 319 323 326 329 332 333 334 334 334 334 334 334 334 334 334 333 330 327 323 319 316 314 310
308 317 325 326 320 314 300 296 294 296 299 307 310 309 309 310 312 313 314 315 319 322 325 327 329 330 331 332 333 333 333 333 334 334 334 334 334 332 329 325 321 319 317 314
319 321 324 326 323 315 306 303 300 299 302 308 307 308 309 311 314 316 317 318 320 323 326 326 327 328 329 330 331 332 333 333 334 335 335 335 335 333 330 326 323 321 320 318
319 323 328 331 330 327 326 312 304 303 306 306 306 308 309 311 313 316 317 319 321 323 325 325 325 326 328 330 331 331 332 333 335 335 336 336 335 334 331 328 326 324 323 321
314 320 324 326 326 325 326 322 320 318 315 311 310 308 307 308 311 315 317 318 320 322 323 324 324 326 327 328 329 330 331 333 335 336 336 336 336 335 333 330 328 327 326 325
298 304 310 314 314 315 317 317 317 317 316 313 309 307 306 308 311 314 316 317 319 321 322 323 324 325 326 327 327 329 331 333 334 336 336 336 336 336 335 332 331 330 330 328
284 293 297 301 305 307 309 311 311 311 311 310 308 307 307 307 309 312 315 316 317 319 321 322 324 324 325 326 327 328 331 332 334 335 336 336 336 336 336 334 333 333 332 331
279 286 291 297 301 302 303 304 304 304 306 307 307 306 305 306 309 312 313 315 316 318 321 322 323 324 324 324 326 328 330 332 333 335 336 336 336 336 336 335 335 335 335 333
281 282 285 291 295 296 296 296 297 300 302 304 304 305 306 307 309 311 313 315 316 318 320 322 322 323 324 324 325 327 329 331 332 333 335 335 336 336 336 336 336 337 337 337
281 281 285 289 293 295 296 295 295 297 299 301 303 305 306 308 310 312 314 315 316 318 320 320 321 322 323 325 325 326 327 329 330 332 333 334 335 336 336 337 337 339 339 340
Height
5877 5878 5877 5877 5877 5878 5879 5879 5878 5877 5876 5875 5873 5872 5870 5869 5869 5870 5870 5870 5869 5868 5867 5865 5863 5861 5859 5856 5853 5849 5846 5843 5840 5836 5833 5830 5828 5825 5822 5819 5817 5815 5813 5810
5878 5877 5877 5876 5875 5875 5876 5876 5874 5874 5872 5871 5869 5867 5865 5862 5863 5864 5866 5866 5866 5865 5864 5862 5860 5857 5854 5851 5848 5844 5840 5837 5833 5829 5826 5823 5820 5817 5814 5810 5808 5805 5803 5801
5877 5877 5875 5875 5875 5874 5874 5873 5872 5871 5869 5868 5866 5864 5862 5861 5861 5862 5863 5863 5863 5862 5860 5858 5856 5853 5850 5846 5842 5838 5834 5830 5826 5822 5818 5815 5811 5808 5805 5801 5798 5795 5793 5790
5878 5877 5876 5874 5873 5872 5872 5872 5871 5869 5868 5866 5864 5862 5861 5860 5859 5861 5861 5861 5860 5859 5857 5854 5851 5848 5844 5840 5836 5832 5828 5823 5819 5815 5811 5807 5803 5799 5796 5792 5789 5785 5782 5780
5879 5877 5876 5874 5873 5872 5872 5871 5870 5869 5868 5866 5864 5862 5862 5861 5861 5861 5860 5859 5858 5855 5853 5850 5846 5842 5838 5834 5830 5825 5821 5817 5812 5808 5804 5799 5795 5791 5787 5784 5780 5776 5772 5769
5878 5877 5876 5875 5873 5872 5871 5871 5870 5869 5868 5867 5864 5862 5861 5860 5861 5860 5859 5856 5854 5851 5848 5844 5841 5837 5832 5828 5823 5819 5815 5810 5806 5801 5797 5792 5787 5783 5779 5775 5771 5767 5763 5759
5879 5878 5876 5875 5874 5872 5871 5871 5871 5869 5867 5866 5864 5862 5862 5861 5861 5858 5856 5853 5849 5846 5843 5839 5836 5831 5827 5822 5817 5812 5808 5803 5798 5793 5788 5783 5779 5774 5770 5765 5761 5757 5753 5749
5878 5877 5876 5874 5872 5871 5870 5869 5869 5867 5865 5864 5863 5862 5863 5861 5858 5855 5852 5848 5845 5842 5839 5835 5831 5826 5821 5816 5811 5806 5801 5796 5791 5785 5780 5775 5770 5765 5760 5756 5752 5748 5744 5740
5877 5876 5874 5873 5871 5870 5869 5867 5866 5864 5863 5862 5860 5859 5859 5857 5855 5851 5847 5844 5841 5838 5834 5830 5826 5821 5817 5811 5806 5800 5794 5789 5783 5778 5772 5767 5761 5756 5751 5747 5742 5738 5733 5729
5875 5874 5873 5872 5870 5869 5867 5865 5864 5863 5861 5859 5858 5856 5856 5853 5850 5846 5843 5841 5838 5835 5831 5827 5823 5818 5813 5807 5801 5794 5788 5782 5776 5770 5764 5758 5753 5747 5742 5737 5732 5727 5722 5718
5874 5873 5872 5870 5869 5867 5866 5864 5862 5860 5859 5857 5855 5855 5852 5850 5847 5844 5842 5839 5836 5833 5829 5825 5820 5815 5809 5802 5795 5789 5782 5776 5769 5763 5757 5750 5744 5738 5732 5726 5720 5715 5710 5705
5872 5871 5870 5868 5867 5865 5863 5861 5860 5859 5857 5855 5852 5854 5849 5847 5844 5842 5839 5836 5833 5830 5826 5822 5817 5811 5804 5798 5791 5784 5777 5770 5763 5756 5749 5742 5735 5728 5721 5715 5708 5702 5697 5692
5870 5869 5868 5866 5867 5864 5861 5859 5858 5856 5855 5852 5850 5851 5846 5844 5841 5839 5836 5834 5830 5827 5823 5818 5812 5806 5800 5793 5786 5779 5771 5764 5757 5749 5742 5734 5727 5719 5711 5703 5696 5690 5684 5679
5867 5866 5865 5864 5862 5860 5859 5857 5855 5854 5852 5851 5849 5846 5844 5841 5839 5836 5834 5831 5827 5823 5818 5813 5808 5801 5795 5787 5780 5773 5765 5758 5750 5742 5734 5726 5718 5709 5701 5693 5685 5678 5672 5667
5864 5863 5861 5860 5858 5857 5856 5855 5853 5852 5850 5848 5846 5844 5842 5839 5836 5834 5830 5826 5822 5818 5813 5808 5803 5796 5789 5781 5774 5766 5759 5751 5743 5735 5726 5718 5709 5700 5691 5683 5675 5668 5662 5656
5861 5860 5859 5857 5855 5854 5853 5852 5851 5849 5847 5845 5843 5842 5839 5836 5833 5830 5826 5822 5818 5813 5809 5803 5797 5790 5782 5775 5767 5760 5752 5744 5735 5727 5718 5709 5700 5691 5681 5673 5665 5658 5651 5645
5858 5857 5856 5855 5853 5852 5851 5850 5848 5846 5844 5843 5841 5839 5836 5833 5829 5826 5822 5818 5813 5809 5803 5797 5790 5783 5776 5769 5761 5753 5745 5736 5728 5719 5710 5700 5691 5681 5672 5663 5655 5648 5641 5634
5856 5855 5853 5852 5851 5849 5849 5846 5844 5842 5841 5840 5838 5835 5832 5829 5826 5822 5818 5813 5808 5802 5796 5790 5784 5777 5770 5762 5754 5746 5738 5729 5720 5711 5701 5692 5682 5673 5663 5654 5645 5637 5630 5623
5853 5852 5850 5848 5846 5845 5845 5842 5840 5839 5837 5835 5833 5829 5826 5822 5819 5815 5811 5806 5801 5796 5790 5784 5777 5770 5763 5756 5748 5739 5731 5722 5713 5703 5694 5684 5674 5665 5655 5645 5636 5628 5620 5612
5849 5848 5847 5844 5842 5841 5842 5839 5836 5835 5832 5830 5827 5824 5820 5816 5812 5809 5805 5800 5794 5789 5783 5777 5770 5764 5756 5749 5741 5732 5724 5715 5705 5696 5686 5676 5666 5656 5646 5637 5627 5619 5610 5602
5845 5844 5842 5840 5838 5836 5836 5833 5831 5829 5828 5824 5821 5818 5814 5810 5807 5803 5798 5793 5788 5783 5777 5770 5763 5756 5749 5742 5734 5725 5716 5707 5698 5688 5679 5668 5658 5648 5638 5628 5619 5610 5602 5593
5842 5840 5839 5837 5834 5834 5830 5827 5826 5824 5821 5818 5814 5811 5808 5804 5800 5796 5792 5787 5781 5776 5770 5764 5757 5749 5742 5734 5727 5718 5709 5700 5691 5681 5671 5661 5651 5640 5630 5621 5611 5602 5593 5584
5839 5837 5835 5834 5832 5829 5825 5822 5820 5817 5814 5811 5808 5804 5801 5797 5794 5790 5786 5780 5774 5769 5763 5756 5749 5742 5735 5727 5719 5711 5702 5693 5683 5673 5664 5654 5643 5633 5623 5613 5604 5595 5585 5577
5835 5831 5829 5827 5825 5823 5820 5817 5814 5811 5808 5804 5801 5798 5795 5791 5788 5784 5779 5773 5767 5761 5755 5748 5741 5734 5727 5719 5711 5703 5694 5685 5676 5667 5657 5647 5637 5626 5616 5607 5597 5588 5579 5570
5829 5826 5823 5821 5819 5817 5815 5811 5808 5804 5801 5797 5794 5791 5788 5784 5781 5777 5772 5766 5759 5753 5747 5740 5733 5726 5719 5711 5703 5695 5686 5678 5669 5659 5650 5640 5631 5621 5611 5601 5592 5583 5574 5565
5822 5818 5815 5813 5812 5809 5806 5803 5800 5797 5794 5790 5787 5784 5780 5776 5773 5768 5763 5758 5751 5744 5738 5731 5725 5717 5710 5703 5695 5687 5678 5670 5662 5653 5644 5634 5625 5615 5606 5596 5587 5577 5569 5561